| time (UTC) | temp C | wind direction | speed KPH | gust KPH | rain 1hr cm | rain 24hr cm | rain mn cm | humidity % | barometer mb |
| 20260508100903 | 11 | 169 | 4.8 | 9.7 | 0.00 | 0.00 | 0.00 | 77 | 1015.3 |
| 20260508100003 | 11 | 158 | 4.8 | 9.7 | 0.00 | 0.00 | 0.00 | 76 | 1015.3 |
| 20260508095403 | 12 | 138 | 3.2 | 9.7 | 0.00 | 0.00 | 0.00 | 76 | 1015.2 |
| 20260508094503 | 12 | 130 | 3.2 | 6.4 | 0.00 | 0.00 | 0.00 | 76 | 1015.3 |
| 20260508093603 | 12 | 135 | 3.2 | 8.0 | 0.00 | 0.00 | 0.00 | 77 | 1015.3 |
| 20260508092703 | 12 | 140 | 4.8 | 11.3 | 0.00 | 0.00 | 0.00 | 78 | 1015.3 |
| 20260508091803 | 11 | 128 | 3.2 | 8.0 | 0.00 | 0.00 | 0.00 | 77 | 1015.3 |
| 20260508090903 | 11 | 129 | 3.2 | 6.4 | 0.00 | 0.00 | 0.00 | 77 | 1015.2 |
| 20260508090003 | 12 | 129 | 3.2 | 8.0 | 0.00 | 0.00 | 0.00 | 78 | 1015.1 |
| 20260508085403 | 12 | 130 | 4.8 | 8.0 | 0.00 | 0.00 | 0.00 | 78 | 1015.1 |
| 20260508084503 | 12 | 133 | 4.8 | 9.7 | 0.00 | 0.00 | 0.00 | 80 | 1015.0 |
| 20260508083603 | 11 | 119 | 3.2 | 9.7 | 0.00 | 0.00 | 0.00 | 82 | 1015.1 |
| 20260508082703 | 11 | 61 | 1.6 | 6.4 | 0.00 | 0.00 | 0.00 | 83 | 1015.1 |
| 20260508081803 | 11 | 61 | 1.6 | 4.8 | 0.00 | 0.00 | 0.00 | 84 | 1015.1 |
| 20260508080903 | 10 | 61 | 1.6 | 6.4 | 0.00 | 0.00 | 0.00 | 85 | 1015.1 |
| 20260508080003 | 10 | 50 | 1.6 | 8.0 | 0.00 | 0.00 | 0.00 | 85 | 1015.0 |
| 20260508075403 | 10 | 40 | 1.6 | 4.8 | 0.00 | 0.00 | 0.00 | 86 | 1015.0 |
| 20260508074503 | 9 | 67 | 1.6 | 4.8 | 0.00 | 0.00 | 0.00 | 86 | 1015.0 |
| 20260508073603 | 9 | 42 | 1.6 | 4.8 | 0.00 | 0.00 | 0.00 | 87 | 1014.9 |
| 20260508072703 | 8 | 346 | 0.0 | 3.2 | 0.00 | 0.00 | 0.00 | 87 | 1014.8 |
| 20260508071803 | 8 | 0 | 0.0 | 0.0 | 0.00 | 0.00 | 0.00 | 87 | 1014.8 |
| 20260508070903 | 8 | 346 | 1.6 | 4.8 | 0.00 | 0.00 | 0.00 | 87 | 1014.7 |
| 20260508070003 | 8 | 345 | 3.2 | 6.4 | 0.00 | 0.00 | 0.00 | 87 | 1014.6 |
| 20260508065403 | 8 | 345 | 3.2 | 6.4 | 0.00 | 0.00 | 0.00 | 88 | 1014.5 |
| 20260508064503 | 7 | 345 | 4.8 | 6.4 | 0.00 | 0.00 | 0.00 | 88 | 1014.4 |
| 20260508063603 | 7 | 354 | 6.4 | 8.0 | 0.00 | 0.00 | 0.00 | 87 | 1014.3 |
| 20260508062703 | 8 | 6 | 3.2 | 6.4 | 0.00 | 0.00 | 0.00 | 88 | 1014.3 |
| 20260508061803 | 8 | 14 | 3.2 | 8.0 | 0.00 | 0.00 | 0.00 | 88 | 1014.2 |
| 20260508060903 | 7 | 31 | 4.8 | 8.0 | 0.00 | 0.00 | 0.00 | 88 | 1014.1 |
| 20260508060003 | 7 | 32 | 1.6 | 6.4 | 0.00 | 0.00 | 0.00 | 88 | 1014.1 |
| 20260508055403 | 7 | 32 | 0.0 | 3.2 | 0.00 | 0.00 | 0.00 | 89 | 1014.1 |
| 20260508054503 | 7 | 32 | 3.2 | 4.8 | 0.00 | 0.00 | 0.00 | 88 | 1014.0 |
| 20260508053603 | 7 | 32 | 1.6 | 3.2 | 0.00 | 0.00 | 0.00 | 88 | 1014.0 |
| 20260508052703 | 7 | 32 | 3.2 | 6.4 | 0.00 | 0.00 | 0.00 | 88 | 1013.9 |
| 20260508051818 | 7 | 32 | 0.0 | 4.8 | 0.00 | 0.00 | 0.00 | 88 | 1013.9 |
| 20260508050903 | 7 | 32 | 1.6 | 4.8 | 0.00 | 0.00 | 0.00 | 88 | 1013.9 |
| 20260508050003 | 7 | 32 | 0.0 | 3.2 | 0.00 | 0.00 | 0.00 | 88 | 1014.0 |
| 20260508045403 | 7 | 32 | 0.0 | 1.6 | 0.00 | 0.00 | 0.00 | 88 | 1013.9 |
| 20260508044503 | 7 | 32 | 1.6 | 3.2 | 0.00 | 0.00 | 0.00 | 88 | 1014.0 |
| 20260508043603 | 7 | 32 | 1.6 | 3.2 | 0.00 | 0.00 | 0.00 | 88 | 1013.9 |
| 20260508042703 | 7 | 32 | 3.2 | 4.8 | 0.00 | 0.00 | 0.00 | 88 | 1013.9 |
| 20260508041803 | 7 | 32 | 0.0 | 3.2 | 0.00 | 0.00 | 0.00 | 88 | 1013.8 |
| 20260508040903 | 7 | 32 | 1.6 | 3.2 | 0.00 | 0.00 | 0.00 | 87 | 1013.8 |
| 20260508040003 | 7 | 32 | 0.0 | 3.2 | 0.00 | 0.00 | 0.00 | 87 | 1013.8 |
| 20260508035403 | 7 | 17 | 1.6 | 4.8 | 0.00 | 0.00 | 0.00 | 87 | 1013.8 |
| 20260508034503 | 7 | 344 | 3.2 | 4.8 | 0.00 | 0.00 | 0.00 | 87 | 1013.8 |
| 20260508033603 | 7 | 344 | 3.2 | 6.4 | 0.00 | 0.00 | 0.00 | 87 | 1013.9 |
| 20260508032703 | 7 | 344 | 4.8 | 6.4 | 0.00 | 0.00 | 0.00 | 87 | 1013.9 |
| 20260508031803 | 7 | 336 | 4.8 | 8.0 | 0.00 | 0.00 | 0.00 | 87 | 1013.9 |
| 20260508030903 | 7 | 321 | 4.8 | 8.0 | 0.00 | 0.00 | 0.00 | 87 | 1013.9 |
| 20260508030003 | 7 | 321 | 3.2 | 4.8 | 0.00 | 0.00 | 0.00 | 87 | 1013.9 |
| 20260508025403 | 7 | 321 | 1.6 | 4.8 | 0.00 | 0.00 | 0.00 | 87 | 1013.9 |
| 20260508024503 | 7 | 0 | 0.0 | 0.0 | 0.00 | 0.00 | 0.00 | 87 | 1014.0 |
| 20260508023603 | 7 | 0 | 0.0 | 0.0 | 0.00 | 0.00 | 0.00 | 87 | 1014.0 |
| 20260508022703 | 7 | 0 | 0.0 | 0.0 | 0.00 | 0.00 | 0.00 | 87 | 1013.9 |
| 20260508021803 | 7 | 0 | 0.0 | 0.0 | 0.00 | 0.00 | 0.00 | 86 | 1013.9 |
| 20260508020903 | 7 | 0 | 0.0 | 0.0 | 0.00 | 0.00 | 0.00 | 86 | 1013.9 |
| 20260508020003 | 7 | 0 | 0.0 | 0.0 | 0.00 | 0.00 | 0.00 | 86 | 1013.8 |
| 20260508015403 | 7 | 321 | 0.0 | 1.6 | 0.00 | 0.00 | 0.00 | 86 | 1013.8 |
| 20260508014503 | 7 | 321 | 1.6 | 4.8 | 0.00 | 0.00 | 0.00 | 86 | 1013.8 |
| 20260508013603 | 7 | 311 | 3.2 | 6.4 | 0.00 | 0.00 | 0.00 | 86 | 1013.9 |
| 20260508012703 | 7 | 0 | 0.0 | 0.0 | 0.00 | 0.00 | 0.00 | 86 | 1013.9 |
| 20260508011803 | 8 | 0 | 0.0 | 0.0 | 0.00 | 0.00 | 0.00 | 86 | 1013.8 |
| 20260508010903 | 8 | 0 | 0.0 | 0.0 | 0.00 | 0.00 | 0.00 | 86 | 1013.8 |
| 20260508010003 | 8 | 0 | 0.0 | 0.0 | 0.00 | 0.00 | 0.00 | 86 | 1013.8 |
| 20260508005403 | 8 | 0 | 0.0 | 0.0 | 0.00 | 0.00 | 0.00 | 86 | 1013.9 |
| 20260508004503 | 8 | 0 | 0.0 | 0.0 | 0.00 | 0.00 | 0.00 | 86 | 1014.0 |
| 20260508003603 | 8 | 0 | 0.0 | 0.0 | 0.00 | 0.00 | 0.00 | 85 | 1014.0 |
| 20260508002703 | 8 | 0 | 0.0 | 0.0 | 0.00 | 0.00 | 0.00 | 85 | 1014.0 |
| 20260508001803 | 8 | 0 | 0.0 | 0.0 | 0.00 | 0.00 | 0.00 | 85 | 1014.0 |
| 20260508000903 | 8 | 0 | 0.0 | 0.0 | 0.00 | 0.00 | 0.00 | 85 | 1014.0 |
| 20260508000003 | 8 | 235 | 1.6 | 3.2 | 0.00 | 0.00 | 0.00 | 84 | 1014.1 |
| 20260507235403 | 8 | 235 | 0.0 | 3.2 | 0.00 | 0.00 | 0.00 | 84 | 1014.1 |
| 20260507234503 | 8 | 0 | 0.0 | 0.0 | 0.00 | 0.00 | 0.00 | 84 | 1014.1 |
| 20260507233603 | 8 | 0 | 0.0 | 0.0 | 0.00 | 0.00 | 0.00 | 84 | 1014.1 |
| 20260507232703 | 8 | 235 | 1.6 | 3.2 | 0.00 | 0.00 | 0.00 | 83 | 1014.1 |
| 20260507231803 | 8 | 235 | 1.6 | 3.2 | 0.00 | 0.00 | 0.00 | 83 | 1014.2 |
| 20260507230903 | 8 | 235 | 1.6 | 3.2 | 0.00 | 0.00 | 0.00 | 83 | 1014.2 |
| 20260507230003 | 8 | 235 | 0.0 | 3.2 | 0.00 | 0.00 | 0.00 | 83 | 1014.1 |
| 20260507225403 | 8 | 235 | 0.0 | 3.2 | 0.00 | 0.00 | 0.00 | 82 | 1014.1 |
| 20260507224504 | 8 | 235 | 0.0 | 1.6 | 0.00 | 0.00 | 0.00 | 82 | 1014.1 |
| 20260507223603 | 9 | 235 | 1.6 | 3.2 | 0.00 | 0.00 | 0.00 | 82 | 1014.1 |
| 20260507222703 | 9 | 235 | 1.6 | 3.2 | 0.00 | 0.00 | 0.00 | 82 | 1014.1 |
| 20260507221803 | 9 | 235 | 1.6 | 3.2 | 0.00 | 0.00 | 0.00 | 81 | 1014.2 |
| 20260507220903 | 9 | 235 | 0.0 | 3.2 | 0.00 | 0.00 | 0.00 | 81 | 1014.2 |
| 20260507220003 | 9 | 235 | 0.0 | 3.2 | 0.00 | 0.00 | 0.00 | 81 | 1014.2 |
| 20260507215403 | 9 | 235 | 1.6 | 3.2 | 0.00 | 0.00 | 0.00 | 81 | 1014.1 |
| 20260507214503 | 9 | 235 | 1.6 | 4.8 | 0.00 | 0.00 | 0.00 | 81 | 1014.1 |
| 20260507213603 | 9 | 235 | 1.6 | 4.8 | 0.00 | 0.00 | 0.00 | 81 | 1014.0 |
| 20260507212703 | 9 | 235 | 1.6 | 4.8 | 0.00 | 0.00 | 0.00 | 80 | 1014.0 |
| 20260507211803 | 9 | 235 | 0.0 | 3.2 | 0.00 | 0.00 | 0.00 | 80 | 1014.0 |
| 20260507210903 | 9 | 235 | 0.0 | 3.2 | 0.00 | 0.00 | 0.00 | 79 | 1013.9 |
| 20260507210003 | 10 | 226 | 0.0 | 4.8 | 0.00 | 0.00 | 0.00 | 79 | 1013.8 |
| 20260507205403 | 10 | 205 | 1.6 | 6.4 | 0.00 | 0.00 | 0.00 | 79 | 1013.8 |
| 20260507204503 | 10 | 201 | 3.2 | 6.4 | 0.00 | 0.00 | 0.00 | 78 | 1013.6 |
| 20260507203603 | 10 | 203 | 3.2 | 6.4 | 0.00 | 0.00 | 0.00 | 77 | 1013.6 |
| 20260507202703 | 10 | 204 | 3.2 | 6.4 | 0.00 | 0.00 | 0.00 | 77 | 1013.5 |
| 20260507201803 | 10 | 192 | 3.2 | 8.0 | 0.00 | 0.00 | 0.00 | 76 | 1013.5 |
| 20260507200903 | 10 | 191 | 3.2 | 9.7 | 0.00 | 0.00 | 0.00 | 75 | 1013.4 |
| 20260507200003 | 10 | 198 | 3.2 | 9.7 | 0.00 | 0.00 | 0.00 | 75 | 1013.3 |
| 20260507195403 | 10 | 206 | 3.2 | 12.9 | 0.00 | 0.00 | 0.00 | 75 | 1013.3 |
| 20260507194503 | 11 | 199 | 4.8 | 12.9 | 0.00 | 0.00 | 0.00 | 75 | 1013.3 |
| 20260507193603 | 11 | 188 | 4.8 | 11.3 | 0.00 | 0.00 | 0.00 | 74 | 1013.1 |
| 20260507192703 | 11 | 197 | 4.8 | 11.3 | 0.00 | 0.00 | 0.00 | 74 | 1013.1 |
| 20260507191803 | 11 | 187 | 4.8 | 9.7 | 0.00 | 0.00 | 0.00 | 74 | 1013.0 |
| 20260507190903 | 11 | 191 | 4.8 | 12.9 | 0.00 | 0.00 | 0.00 | 73 | 1013.0 |
| 20260507190004 | 11 | 219 | 4.8 | 12.9 | 0.00 | 0.00 | 0.00 | 72 | 1013.0 |
| 20260507185403 | 11 | 226 | 4.8 | 11.3 | 0.00 | 0.00 | 0.00 | 72 | 1013.0 |
| 20260507184503 | 12 | 210 | 4.8 | 11.3 | 0.00 | 0.00 | 0.00 | 72 | 1013.0 |
| 20260507183603 | 12 | 230 | 6.4 | 14.5 | 0.00 | 0.00 | 0.00 | 72 | 1012.9 |
| 20260507182703 | 12 | 236 | 6.4 | 12.9 | 0.00 | 0.00 | 0.00 | 72 | 1012.9 |
| 20260507181803 | 12 | 223 | 4.8 | 12.9 | 0.00 | 0.00 | 0.00 | 72 | 1012.9 |
| 20260507180903 | 12 | 198 | 4.8 | 12.9 | 0.00 | 0.00 | 0.00 | 72 | 1012.8 |
| 20260507180003 | 12 | 197 | 4.8 | 16.1 | 0.00 | 0.00 | 0.00 | 71 | 1012.9 |
| 20260507175403 | 12 | 197 | 6.4 | 16.1 | 0.00 | 0.00 | 0.00 | 71 | 1012.8 |
| 20260507174503 | 12 | 205 | 6.4 | 11.3 | 0.00 | 0.00 | 0.00 | 72 | 1012.8 |
| 20260507173603 | 12 | 185 | 9.7 | 17.7 | 0.00 | 0.00 | 0.00 | 71 | 1012.9 |
| 20260507172703 | 12 | 180 | 11.3 | 24.1 | 0.00 | 0.00 | 0.00 | 70 | 1012.8 |
| 20260507171803 | 12 | 185 | 8.0 | 22.5 | 0.00 | 0.00 | 0.00 | 70 | 1012.9 |
| 20260507170903 | 12 | 188 | 8.0 | 19.3 | 0.00 | 0.00 | 0.00 | 70 | 1013.0 |
| 20260507170003 | 12 | 190 | 6.4 | 14.5 | 0.00 | 0.00 | 0.00 | 70 | 1013.0 |
| 20260507165403 | 12 | 188 | 6.4 | 14.5 | 0.00 | 0.00 | 0.00 | 70 | 1013.0 |
| 20260507164503 | 12 | 185 | 6.4 | 16.1 | 0.00 | 0.00 | 0.00 | 70 | 1013.0 |
| 20260507163603 | 11 | 217 | 6.4 | 17.7 | 0.00 | 0.00 | 0.00 | 71 | 1013.0 |
| 20260507162703 | 11 | 195 | 8.0 | 14.5 | 0.00 | 0.00 | 0.00 | 71 | 1012.9 |
| 20260507161803 | 11 | 196 | 6.4 | 14.5 | 0.00 | 0.00 | 0.00 | 73 | 1012.9 |
| 20260507160903 | 11 | 186 | 9.7 | 20.9 | 0.00 | 0.00 | 0.00 | 72 | 1012.9 |
| 20260507160003 | 12 | 188 | 9.7 | 17.7 | 0.00 | 0.00 | 0.00 | 73 | 1012.9 |
| 20260507155403 | 12 | 192 | 8.0 | 14.5 | 0.00 | 0.00 | 0.00 | 72 | 1013.0 |
| 20260507154503 | 12 | 183 | 9.7 | 19.3 | 0.00 | 0.00 | 0.00 | 72 | 1013.0 |
| 20260507153603 | 12 | 182 | 9.7 | 22.5 | 0.00 | 0.00 | 0.00 | 72 | 1013.0 |
| 20260507152703 | 12 | 181 | 11.3 | 19.3 | 0.00 | 0.00 | 0.00 | 71 | 1012.9 |
| 20260507151803 | 12 | 182 | 11.3 | 19.3 | 0.00 | 0.00 | 0.00 | 70 | 1012.9 |
| 20260507150903 | 12 | 181 | 12.9 | 24.1 | 0.00 | 0.00 | 0.00 | 70 | 1012.9 |
| 20260507150003 | 12 | 178 | 12.9 | 24.1 | 0.00 | 0.00 | 0.00 | 69 | 1012.9 |
| 20260507145403 | 12 | 183 | 8.0 | 22.5 | 0.00 | 0.00 | 0.00 | 68 | 1012.8 |
| 20260507144503 | 12 | 191 | 8.0 | 17.7 | 0.00 | 0.00 | 0.00 | 68 | 1012.9 |
| 20260507143603 | 12 | 190 | 8.0 | 17.7 | 0.00 | 0.00 | 0.00 | 69 | 1012.9 |
| 20260507142703 | 12 | 194 | 6.4 | 14.5 | 0.00 | 0.00 | 0.00 | 68 | 1013.0 |
| 20260507141803 | 12 | 207 | 6.4 | 19.3 | 0.00 | 0.00 | 0.00 | 68 | 1013.0 |
| 20260507140903 | 12 | 205 | 9.7 | 22.5 | 0.00 | 0.00 | 0.00 | 68 | 1013.1 |
| 20260507140003 | 12 | 176 | 12.9 | 22.5 | 0.00 | 0.00 | 0.00 | 69 | 1013.0 |
| 20260507135403 | 12 | 177 | 14.5 | 24.1 | 0.00 | 0.00 | 0.00 | 67 | 1013.0 |
| 20260507134503 | 12 | 186 | 8.0 | 19.3 | 0.00 | 0.00 | 0.00 | 68 | 1013.1 |
| 20260507133603 | 12 | 193 | 8.0 | 19.3 | 0.00 | 0.00 | 0.00 | 69 | 1013.1 |
| 20260507132703 | 12 | 187 | 9.7 | 22.5 | 0.00 | 0.00 | 0.00 | 68 | 1013.2 |
| 20260507131803 | 12 | 184 | 11.3 | 20.9 | 0.00 | 0.00 | 0.00 | 68 | 1013.1 |
| 20260507130903 | 12 | 175 | 14.5 | 22.5 | 0.00 | 0.00 | 0.00 | 69 | 1013.1 |
| 20260507130003 | 12 | 179 | 12.9 | 24.1 | 0.00 | 0.00 | 0.00 | 68 | 1013.1 |
| 20260507125403 | 13 | 182 | 11.3 | 24.1 | 0.00 | 0.00 | 0.00 | 67 | 1013.2 |
| 20260507124503 | 13 | 180 | 12.9 | 24.1 | 0.00 | 0.00 | 0.00 | 65 | 1013.2 |
| 20260507123603 | 13 | 180 | 11.3 | 25.7 | 0.00 | 0.00 | 0.00 | 66 | 1013.3 |
| 20260507122705 | 13 | 179 | 11.3 | 20.9 | 0.00 | 0.00 | 0.00 | 65 | 1013.3 |
| 20260507121803 | 13 | 215 | 8.0 | 16.1 | 0.00 | 0.00 | 0.00 | 68 | 1013.3 |
| 20260507120903 | 12 | 185 | 9.7 | 20.9 | 0.00 | 0.00 | 0.00 | 66 | 1013.3 |
| 20260507120003 | 13 | 200 | 8.0 | 16.1 | 0.00 | 0.00 | 0.00 | 68 | 1013.3 |
| 20260507115403 | 12 | 189 | 9.7 | 20.9 | 0.00 | 0.00 | 0.00 | 68 | 1013.3 |
| 20260507114503 | 12 | 183 | 11.3 | 20.9 | 0.00 | 0.00 | 0.00 | 70 | 1013.3 |
| 20260507113603 | 12 | 192 | 9.7 | 20.9 | 0.00 | 0.00 | 0.00 | 70 | 1013.3 |
| 20260507112703 | 12 | 194 | 8.0 | 17.7 | 0.00 | 0.00 | 0.00 | 71 | 1013.3 |
| 20260507111803 | 12 | 219 | 8.0 | 17.7 | 0.00 | 0.00 | 0.00 | 70 | 1013.2 |
| 20260507110903 | 13 | 199 | 9.7 | 20.9 | 0.00 | 0.00 | 0.00 | 69 | 1013.2 |
| 20260507110003 | 13 | 213 | 4.8 | 14.5 | 0.00 | 0.00 | 0.00 | 63 | 1013.3 |
| 20260507105403 | 13 | 225 | 4.8 | 11.3 | 0.00 | 0.00 | 0.00 | 59 | 1013.3 |
| 20260507104503 | 14 | 193 | 4.8 | 11.3 | 0.00 | 0.00 | 0.00 | 60 | 1013.3 |
| 20260507103603 | 15 | 215 | 4.8 | 11.3 | 0.00 | 0.00 | 0.00 | 57 | 1013.3 |
| 20260507102703 | 15 | 245 | 4.8 | 14.5 | 0.00 | 0.00 | 0.00 | 56 | 1013.3 |
| 20260507101803 | 15 | 218 | 4.8 | 11.3 | 0.00 | 0.00 | 0.00 | 53 | 1013.2 |